Time,TemperatureF,DewpointF,PressureIn,WindDirection,WindDirectionDegrees,WindSpeedMPH,WindSpeedGustMPH,Humidity,HourlyPrecipIn,Conditions,Clouds,dailyrainin,SoftwareType,DateUTC
2013-05-11 00:10:00,43.2,35.0,29.98,North,11,0.0,1.0,74,0.00,,,0.02,weatherlink.com 1.10,2013-05-11 04:10:00,
2013-05-11 00:25:00,43.2,36.0,29.99,North,11,0.0,1.0,77,0.00,,,0.02,weatherlink.com 1.10,2013-05-11 04:25:00,
2013-05-11 00:40:00,43.2,36.0,29.99,North,11,0.0,2.0,76,0.00,,,0.02,weatherlink.com 1.10,2013-05-11 04:40:00,
2013-05-11 00:55:00,43.3,36.0,29.98,North,11,1.0,3.0,75,0.00,,,0.02,weatherlink.com 1.10,2013-05-11 04:55:00,
2013-05-11 01:10:00,43.3,36.0,29.97,North,11,0.0,1.0,74,0.00,,,0.02,weatherlink.com 1.10,2013-05-11 05:10:00,
2013-05-11 01:25:00,43.0,36.0,29.96,North,11,0.0,1.0,75,0.00,,,0.02,weatherlink.com 1.10,2013-05-11 05:25:00,
2013-05-11 01:40:00,42.5,35.0,29.96,North,11,0.0,1.0,75,0.00,,,0.02,weatherlink.com 1.10,2013-05-11 05:40:00,
2013-05-11 01:55:00,41.7,35.0,29.95,North,11,0.0,0.0,77,0.00,,,0.02,weatherlink.com 1.10,2013-05-11 05:55:00,
2013-05-11 02:10:00,40.6,35.0,29.95,North,11,0.0,1.0,80,0.00,,,0.02,weatherlink.com 1.10,2013-05-11 06:10:00,
2013-05-11 02:25:00,39.2,34.0,29.94,North,11,0.0,0.0,82,0.00,,,0.02,weatherlink.com 1.10,2013-05-11 06:25:00,
2013-05-11 02:40:00,38.0,33.0,29.94,North,11,0.0,1.0,83,0.00,,,0.02,weatherlink.com 1.10,2013-05-11 06:40:00,
2013-05-11 02:55:00,37.0,33.0,29.94,North,11,0.0,0.0,84,0.00,,,0.02,weatherlink.com 1.10,2013-05-11 06:55:00,
2013-05-11 03:10:00,36.0,32.0,29.93,North,11,0.0,1.0,84,0.00,,,0.02,weatherlink.com 1.10,2013-05-11 07:10:00,
2013-05-11 03:25:00,35.2,31.0,29.93,North,11,0.0,1.0,85,0.00,,,0.02,weatherlink.com 1.10,2013-05-11 07:25:00,
2013-05-11 03:40:00,34.9,31.0,29.92,North,11,0.0,0.0,85,0.00,,,0.02,weatherlink.com 1.10,2013-05-11 07:40:00,
2013-05-11 03:55:00,34.7,31.0,29.92,North,11,0.0,1.0,85,0.00,,,0.02,weatherlink.com 1.10,2013-05-11 07:55:00,
2013-05-11 04:10:00,33.6,30.0,29.92,North,11,0.0,1.0,85,0.00,,,0.02,weatherlink.com 1.10,2013-05-11 08:10:00,
2013-05-11 04:25:00,33.1,29.0,29.91,North,11,0.0,0.0,86,0.00,,,0.02,weatherlink.com 1.10,2013-05-11 08:25:00,
2013-05-11 04:40:00,32.4,29.0,29.91,North,11,0.0,2.0,86,0.00,,,0.02,weatherlink.com 1.10,2013-05-11 08:40:00,
2013-05-11 04:55:00,31.7,28.0,29.90,North,11,0.0,0.0,86,0.00,,,0.02,weatherlink.com 1.10,2013-05-11 08:55:00,
2013-05-11 05:10:00,31.3,28.0,29.90,North,11,0.0,1.0,86,0.00,,,0.02,weatherlink.com 1.10,2013-05-11 09:10:00,
2013-05-11 05:25:00,31.4,28.0,29.90,North,11,0.0,0.0,86,0.00,,,0.02,weatherlink.com 1.10,2013-05-11 09:25:00,
2013-05-11 05:40:00,31.4,28.0,29.89,North,11,0.0,1.0,86,0.00,,,0.02,weatherlink.com 1.10,2013-05-11 09:40:00,
2013-05-11 05:55:00,31.2,28.0,29.89,North,11,0.0,1.0,86,0.00,,,0.02,weatherlink.com 1.10,2013-05-11 09:55:00,
2013-05-11 06:10:00,30.9,27.0,29.89,North,11,0.0,0.0,86,0.00,,,0.02,weatherlink.com 1.10,2013-05-11 10:10:00,
2013-05-11 06:25:00,31.1,28.0,29.89,North,11,0.0,1.0,87,0.00,,,0.02,weatherlink.com 1.10,2013-05-11 10:25:00,
2013-05-11 06:40:00,31.8,28.0,29.88,NE,39,0.0,3.0,87,0.00,,,0.02,weatherlink.com 1.10,2013-05-11 10:40:00,
2013-05-11 06:55:00,32.6,29.0,29.88,NE,47,1.0,2.0,87,0.00,,,0.02,weatherlink.com 1.10,2013-05-11 10:55:00,
2013-05-11 07:10:00,32.8,29.0,29.88,NE,47,0.0,3.0,87,0.00,,,0.02,weatherlink.com 1.10,2013-05-11 11:10:00,
2013-05-11 07:25:00,33.4,30.0,29.88,NNW,336,0.0,2.0,87,0.00,,,0.02,weatherlink.com 1.10,2013-05-11 11:25:00,
2013-05-11 07:40:00,34.8,31.0,29.87,NNW,336,0.0,1.0,87,0.00,,,0.02,weatherlink.com 1.10,2013-05-11 11:40:00,
2013-05-11 07:56:00,36.2,33.0,29.87,NNW,336,1.0,2.0,87,0.00,,,0.00,weatherlink.com 1.10,2013-05-11 11:56:00,
2013-05-11 08:10:00,37.6,34.0,29.87,NNW,336,0.0,3.0,86,0.00,,,0.00,weatherlink.com 1.10,2013-05-11 12:10:00,
2013-05-11 08:26:00,38.9,35.0,29.87,NNW,341,0.0,3.0,85,0.00,,,0.00,weatherlink.com 1.10,2013-05-11 12:26:00,
2013-05-11 08:41:00,40.0,35.0,29.86,North,350,0.0,4.0,81,0.00,,,0.00,weatherlink.com 1.10,2013-05-11 12:41:00,
2013-05-11 08:56:00,42.0,36.0,29.86,NW,320,2.0,3.0,79,0.00,,,0.00,weatherlink.com 1.10,2013-05-11 12:56:00,
2013-05-11 09:11:00,43.9,35.0,29.86,WNW,290,0.0,4.0,71,0.00,,,0.00,weatherlink.com 1.10,2013-05-11 13:11:00,
2013-05-11 09:26:00,45.7,34.0,29.86,NNE,24,3.0,6.0,63,0.00,,,0.00,weatherlink.com 1.10,2013-05-11 13:26:00,
2013-05-11 09:41:00,46.6,33.0,29.85,West,269,4.0,7.0,60,0.00,,,0.00,weatherlink.com 1.10,2013-05-11 13:41:00,
2013-05-11 09:56:00,46.8,35.0,29.85,WSW,245,6.0,7.0,63,0.00,,,0.00,weatherlink.com 1.10,2013-05-11 13:56:00,
2013-05-11 10:11:00,46.0,36.0,29.84,WSW,246,3.0,9.0,68,0.00,,,0.00,weatherlink.com 1.10,2013-05-11 14:11:00,
2013-05-11 10:26:00,46.1,35.0,29.84,WSW,246,4.0,9.0,66,0.00,,,0.00,weatherlink.com 1.10,2013-05-11 14:26:00,
2013-05-11 10:41:00,46.4,37.0,29.84,West,265,5.0,8.0,69,0.00,,,0.00,weatherlink.com 1.10,2013-05-11 14:41:00,
2013-05-11 10:56:00,46.5,38.0,29.83,West,279,2.0,8.0,71,0.00,,,0.00,weatherlink.com 1.10,2013-05-11 14:56:00,
2013-05-11 11:11:00,46.5,37.0,29.83,WSW,242,4.0,7.0,69,0.00,,,0.00,weatherlink.com 1.10,2013-05-11 15:11:00,
2013-05-11 11:26:00,46.6,36.0,29.82,WSW,248,4.0,7.0,68,0.00,,,0.00,weatherlink.com 1.10,2013-05-11 15:26:00,
2013-05-11 11:41:00,47.6,35.0,29.81,SW,229,5.0,7.0,61,0.00,,,0.00,weatherlink.com 1.10,2013-05-11 15:41:00,
2013-05-11 11:56:00,49.2,37.0,29.80,SW,216,5.0,8.0,63,0.00,,,0.00,weatherlink.com 1.10,2013-05-11 15:56:00,
2013-05-11 12:11:00,48.4,37.0,29.79,SSW,200,4.0,9.0,64,0.00,,,0.00,weatherlink.com 1.10,2013-05-11 16:11:00,
2013-05-11 12:26:00,48.1,38.0,29.78,SW,219,5.0,8.0,67,0.00,,,0.00,weatherlink.com 1.10,2013-05-11 16:26:00,
2013-05-11 12:41:00,48.7,37.0,29.77,SSW,213,4.0,10.0,64,0.00,,,0.00,weatherlink.com 1.10,2013-05-11 16:41:00,
2013-05-11 12:56:00,48.5,35.0,29.77,South,180,7.0,11.0,60,0.00,,,0.00,weatherlink.com 1.10,2013-05-11 16:56:00,
2013-05-11 13:11:00,49.3,34.0,29.76,SSW,192,7.0,11.0,55,0.00,,,0.00,weatherlink.com 1.10,2013-05-11 17:11:00,
2013-05-11 13:26:00,49.5,33.0,29.75,South,191,4.0,11.0,54,0.00,,,0.00,weatherlink.com 1.10,2013-05-11 17:26:00,
2013-05-11 13:41:00,49.4,33.0,29.75,SSE,165,3.0,8.0,54,0.00,,,0.00,weatherlink.com 1.10,2013-05-11 17:41:00,
2013-05-11 13:56:00,49.1,32.0,29.74,South,171,5.0,9.0,52,0.00,,,0.00,weatherlink.com 1.10,2013-05-11 17:56:00,
2013-05-11 14:11:00,48.5,35.0,29.74,SE,133,3.0,9.0,61,0.00,,,0.00,weatherlink.com 1.10,2013-05-11 18:11:00,
2013-05-11 14:26:00,49.1,34.0,29.73,SE,138,2.0,8.0,56,0.00,,,0.00,weatherlink.com 1.10,2013-05-11 18:26:00,
2013-05-11 14:41:00,49.7,34.0,29.72,SSW,200,7.0,11.0,56,0.00,,,0.00,weatherlink.com 1.10,2013-05-11 18:41:00,
2013-05-11 14:56:00,49.2,36.0,29.71,SE,130,2.0,11.0,60,0.00,,,0.00,weatherlink.com 1.10,2013-05-11 18:56:00,
2013-05-11 15:12:00,49.2,36.0,29.71,South,178,4.0,10.0,61,0.00,,,0.00,weatherlink.com 1.10,2013-05-11 19:12:00,
2013-05-11 15:27:00,48.1,35.0,29.71,SSW,201,3.0,9.0,62,0.00,,,0.00,weatherlink.com 1.10,2013-05-11 19:27:00,
2013-05-11 15:42:00,46.7,36.0,29.71,SW,220,1.0,6.0,66,0.00,,,0.00,weatherlink.com 1.10,2013-05-11 19:42:00,
2013-05-11 15:57:00,45.6,36.0,29.72,WSW,246,5.0,10.0,70,0.00,,,0.00,weatherlink.com 1.10,2013-05-11 19:57:00,
2013-05-11 16:12:00,43.1,38.0,29.74,West,277,8.0,19.0,83,0.01,,,0.01,weatherlink.com 1.10,2013-05-11 20:12:00,
2013-05-11 16:27:00,41.2,37.0,29.75,West,274,10.0,17.0,84,0.02,,,0.02,weatherlink.com 1.10,2013-05-11 20:27:00,
2013-05-11 16:42:00,40.5,36.0,29.75,West,262,8.0,14.0,85,0.04,,,0.04,weatherlink.com 1.10,2013-05-11 20:42:00,
2013-05-11 16:57:00,40.0,36.0,29.75,West,266,8.0,14.0,85,0.07,,,0.07,weatherlink.com 1.10,2013-05-11 20:57:00,
2013-05-11 17:12:00,39.1,35.0,29.76,WNW,283,11.0,14.0,85,0.08,,,0.09,weatherlink.com 1.10,2013-05-11 21:12:00,
2013-05-11 17:27:00,38.6,35.0,29.74,NW,308,7.0,12.0,85,0.10,,,0.12,weatherlink.com 1.10,2013-05-11 21:27:00,
2013-05-11 17:42:00,37.1,33.0,29.75,West,274,9.0,16.0,85,0.11,,,0.15,weatherlink.com 1.10,2013-05-11 21:42:00,
2013-05-11 17:57:00,35.1,31.0,29.76,WNW,290,6.0,11.0,86,0.09,,,0.16,weatherlink.com 1.10,2013-05-11 21:57:00,
2013-05-11 18:12:00,34.5,31.0,29.76,WNW,301,4.0,12.0,86,0.08,,,0.17,weatherlink.com 1.10,2013-05-11 22:12:00,
2013-05-11 18:27:00,34.3,31.0,29.76,WNW,286,10.0,11.0,86,0.06,,,0.18,weatherlink.com 1.10,2013-05-11 22:27:00,
2013-05-11 18:42:00,34.2,31.0,29.76,West,278,9.0,11.0,87,0.04,,,0.19,weatherlink.com 1.10,2013-05-11 22:42:00,
2013-05-11 18:57:00,34.4,31.0,29.75,West,275,5.0,11.0,87,0.04,,,0.20,weatherlink.com 1.10,2013-05-11 22:57:00,
2013-05-11 19:12:00,34.4,31.0,29.75,WNW,291,6.0,11.0,87,0.04,,,0.21,weatherlink.com 1.10,2013-05-11 23:12:00,
2013-05-11 19:27:00,34.4,31.0,29.75,NW,320,7.0,15.0,87,0.04,,,0.22,weatherlink.com 1.10,2013-05-11 23:27:00,
2013-05-11 19:42:00,34.3,31.0,29.75,WNW,293,7.0,17.0,87,0.03,,,0.22,weatherlink.com 1.10,2013-05-11 23:42:00,
2013-05-11 19:57:00,34.5,31.0,29.75,WNW,300,10.0,12.0,87,0.03,,,0.23,weatherlink.com 1.10,2013-05-11 23:57:00,
2013-05-11 20:12:00,34.8,31.0,29.75,WNW,284,9.0,13.0,87,0.02,,,0.23,weatherlink.com 1.10,2013-05-12 00:12:00,
2013-05-11 20:27:00,34.9,31.0,29.75,NW,325,10.0,16.0,87,0.01,,,0.23,weatherlink.com 1.10,2013-05-12 00:27:00,
2013-05-11 20:42:00,34.9,31.0,29.74,NW,322,4.0,13.0,87,0.01,,,0.23,weatherlink.com 1.10,2013-05-12 00:42:00,
2013-05-11 20:57:00,34.8,31.0,29.74,WNW,300,7.0,14.0,87,0.00,,,0.23,weatherlink.com 1.10,2013-05-12 00:57:00,
2013-05-11 21:12:00,34.8,31.0,29.73,WNW,283,15.0,15.0,87,0.01,,,0.24,weatherlink.com 1.10,2013-05-12 01:12:00,
2013-05-11 21:27:00,34.9,31.0,29.73,WNW,303,9.0,14.0,87,0.01,,,0.24,weatherlink.com 1.10,2013-05-12 01:27:00,
2013-05-11 21:42:00,35.0,32.0,29.73,WNW,300,5.0,19.0,87,0.02,,,0.25,weatherlink.com 1.10,2013-05-12 01:42:00,
2013-05-11 21:57:00,35.2,32.0,29.73,NW,309,9.0,14.0,87,0.01,,,0.25,weatherlink.com 1.10,2013-05-12 01:57:00,
2013-05-11 22:12:00,35.3,32.0,29.73,WNW,292,7.0,16.0,87,0.01,,,0.25,weatherlink.com 1.10,2013-05-12 02:12:00,
2013-05-11 22:27:00,35.2,32.0,29.73,WNW,288,6.0,14.0,87,0.02,,,0.26,weatherlink.com 1.10,2013-05-12 02:27:00,
2013-05-11 22:42:00,35.2,32.0,29.72,WNW,294,7.0,16.0,87,0.02,,,0.27,weatherlink.com 1.10,2013-05-12 02:42:00,
2013-05-11 22:57:00,35.6,32.0,29.71,NW,310,8.0,18.0,87,0.03,,,0.28,weatherlink.com 1.10,2013-05-12 02:57:00,
2013-05-11 23:12:00,36.2,32.0,29.70,WNW,302,11.0,18.0,86,0.03,,,0.28,weatherlink.com 1.10,2013-05-12 03:12:00,
2013-05-11 23:27:00,36.5,33.0,29.70,West,280,12.0,18.0,86,0.02,,,0.28,weatherlink.com 1.10,2013-05-12 03:27:00,
2013-05-11 23:42:00,36.4,33.0,29.69,WNW,292,10.0,17.0,86,0.01,,,0.28,weatherlink.com 1.10,2013-05-12 03:42:00,
2013-05-11 23:57:00,36.3,33.0,29.68,WNW,301,7.0,18.0,86,0.01,,,0.29,weatherlink.com 1.10,2013-05-12 03:57:00,